STARLINK-32151, 60299

Orbit data source: Space-Track

STARLINK-32151, 60299 is a payload satellite owned by SpaceX/Seattle (US) in LEO that was launched on Sun, 28 Jul 2024 UTC via an FALCON 9 launch vehicle from the Air Force Eastern Test Range (AFETR). Payload-class satellites include a variety of spacecraft equipped with specific instruments for various scientific and technological missions. These include communications satellites like Starlink; space stations such as the ISS; scientific satellites like the Hubble; Earth observation satellites from companies like Planet Labs, Umbra, and HawkEye 360; GPS; miniature CubeSats for education and research; and military/defense satellites.

Loading next visibility...
Identifier
60299, 2024-132X
Orbit
LEO
Last TLE update
18 hours ago
Origin
Manufacturer
SpaceX/Seattle
Mission
Operational spacecraft
Bus & Motor
STARLINK V2M, Unknown motor
Mass
730 kg wet, ~700 kg dry
Launch date (UTC)
2024-07-28 (11 months ago)
Launch vehicle
FALCON 9
Launch site
Air Force Eastern Test Range (AFETR)
Object type
Payload
Rocket body
Debris
Shape & HBR
Unknown
Radar Cross Section
Large (>1 m²)

Expand to show TLE details & history

TLE from 18 hours ago
0 STARLINK-32151
1 60299U 24132X   25188.08485674  .00000097  00000-0  15420-4 0  9996
2 60299  53.1603  84.7991 0001118  92.8716 267.2413 15.30184169 54358
Epoch: 2025-07-07T02:02Z
TLE epoch observation values (Epoch: 2025-07-07T02:02:11.622Z)
Latitude
0.00001°
Longitude
128.95142°
Altitude
476.199 km
Speed
7.629 km/s
True Right ascension
05h 39m 11s
True Declination
0° 00' 00"
Sunlit
Object was in daylight at epoch
Visualization orbit readout
Latitude
4.17213°
Longitude
-57.64926°
Altitude
475.576 km
Speed
7.63 km/s
Apparent Right ascension
18h 24m 26s
Apparent Declination
-18° 06' 53"
Sunlit
Object is in full shadow
Visualization observer readout
Local Sidereal Time
08:06:04
Azimuth
52.55° ENE
Elevation
-59.087°
Doppler factor
1
Orbital elements
Apogee altitude
476.285 km
Perigee altitude
474.752 km
Semi-major axis
6,853.656 km
Eccentricity
0.00011
Inclination
53.1603°
RAAN
84.7991°
Arg. of periapsis
92.8716°
True anomaly
Unknown
Mean anomaly
267.2413°
Eccentric anomaly
Unknown
Mean motion
3.82525 °/min
Orbital period
94.11 mins
BSTAR
0.00001542
Loading maneuver chart data...
Loading SW <> Apogee altitude chart data...
Loading historical data...
Loading historical data...
Loading historical data...
Loading historical data...
Loading historical data...
Loading historical data...
Loading historical data...

STARLINK-32151 Visibility forecast

Observer location: undefined°, undefined°

Span
Click to sort rows by Start time (UTC) header in descending order
Start Az.
Max El. time (UTC)
Max El. Az.
Max El.
End time (UTC)
End Az.
5 mins2025-07-07 21:05:23.872Z282.885° WNW2025-07-07 21:07:23.872Z323.073° NNW22.668°2025-07-07 21:10:23.872Z25.84° NE
5 mins2025-07-08 02:02:23.872Z330.11° NNW2025-07-08 02:04:23.872Z22.269° NNE34.024°2025-07-08 02:07:23.872Z103.025° ESE
5 mins2025-07-08 18:58:23.872Z190.498° SSW2025-07-08 19:00:23.872Z124.889° SE32.997°2025-07-08 19:03:23.872Z64.567° ENE
|